Simultaneous Nadir Overpasses (SNOs) Predictions

Prediction of SNOs between METOP-A and NOAA-19 Satellite Orbit:

Table of predicted SNOs for the next 14.0 days since TLE Epoch: 1/28/2017
Index Date (METOP-A) Time (METOP-A) Lat,Lon (METOP-A) SZA (METOP-A ) Date (NOAA-19) Time (NOAA-19) Lat,Lon (NOAA-19) SZA (NOAA-19 ) Distance(km) Time Diff (sec)
1 01/30/2017 20:49:28 -77.30, 52.49 85.35 01/30/2017 20:48:23 -77.28, 48.77 85.36 91.10 65
2 01/30/2017 21:40:19 76.84,-142.09 94.18 01/30/2017 21:39:11 76.86,-142.07 94.20 2.30 68
3 01/30/2017 22:31:00 -76.85, 25.26 85.83 01/30/2017 22:30:14 -76.83, 25.27 85.84 1.37 46
4 01/30/2017 23:21:41 76.82,-167.51 94.14 01/30/2017 23:21:12 76.83,-167.44 94.15 1.96 29
5 01/31/2017 00:12:22 -76.83, -0.15 85.87 01/31/2017 00:12:15 -76.80, -0.10 85.89 3.08 7
6 01/31/2017 01:03:03 76.80, 167.08 94.10 01/31/2017 01:03:13 76.79, 167.19 94.09 3.09 10
7 01/31/2017 01:53:44 -76.81, -25.57 85.91 01/31/2017 01:54:17 -76.81, -25.65 85.90 2.16 33
8 01/31/2017 02:44:25 76.78, 141.66 94.06 01/31/2017 02:45:15 76.80, 141.65 94.08 2.58 50
9 01/31/2017 03:35:06 -76.79, -50.98 85.95 01/31/2017 03:36:18 -76.78, -51.02 85.96 1.31 72
10 02/10/2017 14:26:48 77.02, -33.02 91.10 02/10/2017 14:25:36 77.07, -34.29 91.16 32.18 72
11 02/10/2017 15:17:32 -76.90, 133.83 89.04 02/10/2017 15:16:33 -76.89, 133.73 89.04 2.57 59
12 02/10/2017 16:08:13 76.86, -58.97 90.93 02/10/2017 16:07:33 76.87, -58.92 90.93 1.42 40
13 02/10/2017 16:58:54 -76.88, 108.41 89.08 02/10/2017 16:58:34 -76.86, 108.35 89.09 2.27 20
14 02/10/2017 17:49:35 76.84, -84.39 90.88 02/10/2017 17:49:34 76.84, -84.29 90.88 2.70 1
15 02/10/2017 18:40:16 -76.86, 82.99 89.12 02/10/2017 18:40:35 -76.83, 82.98 89.15 3.11 19
16 02/10/2017 19:30:57 76.83,-109.81 90.84 02/10/2017 19:31:36 76.85,-109.84 90.86 2.56 39
17 02/10/2017 20:21:38 -76.84, 57.58 89.16 02/10/2017 20:22:37 -76.84, 57.43 89.16 3.82 59
18 02/10/2017 21:12:22 76.67,-135.74 90.67 02/10/2017 21:13:34 76.69,-134.67 90.68 27.38 72




NCC Satellite Simultaneous Nad
